When you browse on this site, cookies collect data to enhance your experience and personalize the content and advertising you see.
Visit our Privacy Policy to learn more. By continuing to use the site, you agree to this use of cookies and data.
  • In Hungary
  • List of Countries
  • For 7 days
  • Water Temperature
  • Weather Map
  • News
  • Weather Widgets
  • user-avatar
    Login

    Hourly Weather Retlob

    Today, 24 October, Thursday

    Time Temperature Precipitation Wind Pressure Humidity
    00:00 +4°C° 0 mm 0 mps 613 mmHg 79%
    01:00 +4°C° 0 mm 0 mps 613 mmHg 82%
    02:00 +4°C° 0 mm 0 mps 613 mmHg 85%
    03:00 +4°C° 0 mm 0 mps 613 mmHg 88%
    04:00 +4°C° 0 mm 0 mps 613 mmHg 87%
    05:00 +4°C° 0 mm 0 mps 613 mmHg 86%
    06:00 +4°C° 0 mm 0 mps 613 mmHg 84%
    07:00 +5°C° 0 mm 0 mps 614 mmHg 76%
    08:00 +7°C° 0 mm 0 mps 614 mmHg 67%
    09:00 +9°C° 0 mm 1 mps 615 mmHg 58%
    10:00 +10°C° 0 mm 1 mps 615 mmHg 56%
    11:00 +11°C° 0 mm 1 mps 615 mmHg 54%
    12:00 +12°C° 0 mm 2 mps 615 mmHg 52%
    13:00 +12°C° 0 mm 1 mps 615 mmHg 55%
    14:00 +12°C° 0 mm 1 mps 615 mmHg 57%
    15:00 +11°C° 0 mm 1 mps 615 mmHg 60%
    16:00 +10°C° 0 mm 1 mps 614 mmHg 67%
    17:00 +8°C° 0 mm 1 mps 613 mmHg 74%
    18:00 +5°C° 0 mm 0 mps 613 mmHg 81%
    19:00 +5°C° 0 mm 0 mps 613 mmHg 82%
    20:00 +5°C° 0 mm 0 mps 613 mmHg 84%
    21:00 +4°C° 0 mm 0 mps 613 mmHg 85%
    22:00 +5°C° 0 mm 1 mps 613 mmHg 86%
    23:00 +5°C° 0 mm 1 mps 613 mmHg 88%

    Tomorrow, 25 October, Friday

    Time Temperature Precipitation Wind Pressure Humidity
    00:00 +5°C° 0 mm 1 mps 613 mmHg 89%
    01:00 +5°C° 0 mm 1 mps 612 mmHg 89%
    02:00 +6°C° 0 mm 1 mps 612 mmHg 89%
    03:00 +6°C° 0 mm 1 mps 612 mmHg 88%
    04:00 +5°C° 0 mm 1 mps 612 mmHg 87%
    05:00 +5°C° 0 mm 1 mps 612 mmHg 86%
    06:00 +5°C° 0 mm 1 mps 612 mmHg 86%
    07:00 +6°C° 0 mm 1 mps 612 mmHg 77%
    08:00 +8°C° 0 mm 1 mps 613 mmHg 69%
    09:00 +9°C° 0 mm 1 mps 613 mmHg 61%
    10:00 +10°C° 0 mm 1 mps 614 mmHg 59%
    11:00 +11°C° 0 mm 1 mps 614 mmHg 56%
    12:00 +12°C° 0 mm 2 mps 614 mmHg 53%
    13:00 +12°C° 0 mm 2 mps 614 mmHg 56%
    14:00 +12°C° 0 mm 2 mps 613 mmHg 58%
    15:00 +12°C° 0 mm 2 mps 613 mmHg 60%
    16:00 +10°C° 0 mm 1 mps 612 mmHg 68%
    17:00 +8°C° 0 mm 1 mps 612 mmHg 76%
    18:00 +6°C° 0 mm 0 mps 611 mmHg 84%
    19:00 +5°C° 0 mm 0 mps 611 mmHg 85%
    20:00 +6°C° 0 mm 1 mps 611 mmHg 86%
    21:00 +6°C° 0 mm 1 mps 611 mmHg 86%
    22:00 +5°C° 0 mm 1 mps 611 mmHg 87%
    23:00 +5°C° 0 mm 1 mps 611 mmHg 89%

    Day after tomorrow, 26 October, Saturday

    Time Temperature Precipitation Wind Pressure Humidity
    00:00 +5°C° 0 mm 1 mps 611 mmHg 90%
    01:00 +5°C° 0 mm 1 mps 611 mmHg 89%
    02:00 +5°C° 0 mm 1 mps 611 mmHg 88%
    03:00 +5°C° 0 mm 1 mps 611 mmHg 86%
    04:00 +5°C° 0 mm 1 mps 611 mmHg 85%
    05:00 +4°C° 0 mm 1 mps 611 mmHg 83%
    06:00 +3°C° 0 mm 0 mps 611 mmHg 81%
    07:00 +5°C° 0 mm 0 mps 612 mmHg 74%
    08:00 +8°C° 0 mm 1 mps 612 mmHg 66%
    09:00 +10°C° 0 mm 1 mps 613 mmHg 59%
    10:00 +10°C° 0 mm 1 mps 613 mmHg 57%
    11:00 +11°C° 0 mm 1 mps 614 mmHg 56%
    12:00 +12°C° 0 mm 1 mps 614 mmHg 55%
    13:00 +11°C° 0.2 mm 1 mps 614 mmHg 60%
    14:00 +11°C° 0.2 mm 1 mps 613 mmHg 64%
    15:00 +11°C° 0.2 mm 1 mps 613 mmHg 69%
    16:00 +9°C° 0.2 mm 1 mps 613 mmHg 75%
    17:00 +8°C° 0.2 mm 1 mps 612 mmHg 81%
    18:00 +6°C° 0.2 mm 0 mps 612 mmHg 87%
    19:00 +5°C° 0 mm 0 mps 612 mmHg 86%
    20:00 +5°C° 0 mm 0 mps 612 mmHg 85%
    21:00 +5°C° 0 mm 0 mps 612 mmHg 84%
    22:00 +4°C° 0 mm 0 mps 612 mmHg 85%
    23:00 +4°C° 0 mm 0 mps 612 mmHg 85%

    , 27 October, Sunday

    Time Temperature Precipitation Wind Pressure Humidity
    00:00 +4°C° 0 mm 0 mps 612 mmHg 85%
    01:00 +4°C° 0 mm 0 mps 611 mmHg 84%
    02:00 +4°C° 0 mm 0 mps 611 mmHg 84%
    03:00 +5°C° 0 mm 1 mps 611 mmHg 84%
    04:00 +5°C° 0 mm 1 mps 611 mmHg 82%
    05:00 +4°C° 0 mm 1 mps 612 mmHg 80%
    06:00 +4°C° 0 mm 1 mps 612 mmHg 78%
    07:00 +6°C° 0 mm 1 mps 612 mmHg 70%
    08:00 +8°C° 0 mm 1 mps 613 mmHg 63%
    09:00 +10°C° 0 mm 1 mps 614 mmHg 55%
    10:00 +11°C° 0 mm 1 mps 614 mmHg 53%
    11:00 +12°C° 0 mm 1 mps 615 mmHg 50%
    12:00 +13°C° 0 mm 1 mps 615 mmHg 48%
    13:00 +12°C° 0.1 mm 1 mps 615 mmHg 51%
    14:00 +12°C° 0.1 mm 1 mps 614 mmHg 53%
    15:00 +12°C° 0.1 mm 1 mps 614 mmHg 56%
    16:00 +10°C° 0 mm 1 mps 613 mmHg 63%
    17:00 +8°C° 0 mm 1 mps 613 mmHg 70%
    18:00 +6°C° 0 mm 1 mps 612 mmHg 78%
    19:00 +6°C° 0 mm 1 mps 612 mmHg 78%
    20:00 +6°C° 0 mm 1 mps 612 mmHg 78%
    21:00 +5°C° 0 mm 1 mps 612 mmHg 78%
    22:00 +4°C° 0 mm 0 mps 612 mmHg 78%
    23:00 +4°C° 0 mm 0 mps 612 mmHg 79%

    27 October, Sunday

    Time Temperature Precipitation Wind Pressure Humidity
    00:00 +4°C° 0 mm 0 mps 612 mmHg 85%
    01:00 +4°C° 0 mm 0 mps 611 mmHg 84%
    02:00 +4°C° 0 mm 0 mps 611 mmHg 84%
    03:00 +5°C° 0 mm 1 mps 611 mmHg 84%
    04:00 +5°C° 0 mm 1 mps 611 mmHg 82%
    05:00 +4°C° 0 mm 1 mps 612 mmHg 80%
    06:00 +4°C° 0 mm 1 mps 612 mmHg 78%
    07:00 +6°C° 0 mm 1 mps 612 mmHg 70%
    08:00 +8°C° 0 mm 1 mps 613 mmHg 63%
    09:00 +10°C° 0 mm 1 mps 614 mmHg 55%
    10:00 +11°C° 0 mm 1 mps 614 mmHg 53%
    11:00 +12°C° 0 mm 1 mps 615 mmHg 50%
    12:00 +13°C° 0 mm 1 mps 615 mmHg 48%
    13:00 +12°C° 0.1 mm 1 mps 615 mmHg 51%
    14:00 +12°C° 0.1 mm 1 mps 614 mmHg 53%
    15:00 +12°C° 0.1 mm 1 mps 614 mmHg 56%
    16:00 +10°C° 0 mm 1 mps 613 mmHg 63%
    17:00 +8°C° 0 mm 1 mps 613 mmHg 70%
    18:00 +6°C° 0 mm 1 mps 612 mmHg 78%
    19:00 +6°C° 0 mm 1 mps 612 mmHg 78%
    20:00 +6°C° 0 mm 1 mps 612 mmHg 78%
    21:00 +5°C° 0 mm 1 mps 612 mmHg 78%
    22:00 +4°C° 0 mm 0 mps 612 mmHg 78%
    23:00 +4°C° 0 mm 0 mps 612 mmHg 79%

    28 October, Monday

    Time Temperature Precipitation Wind Pressure Humidity
    00:00 +4°C° 0 mm 0 mps 612 mmHg 79%
    01:00 +4°C° 0 mm 0 mps 612 mmHg 80%
    02:00 +5°C° 0 mm 1 mps 612 mmHg 82%
    03:00 +5°C° 0 mm 1 mps 612 mmHg 83%
    04:00 +5°C° 0 mm 1 mps 612 mmHg 83%
    05:00 +4°C° 0 mm 1 mps 612 mmHg 84%
    06:00 +4°C° 0 mm 1 mps 612 mmHg 84%
    07:00 +6°C° 0 mm 1 mps 613 mmHg 78%
    08:00 +8°C° 0 mm 1 mps 613 mmHg 72%
    09:00 +10°C° 0 mm 1 mps 614 mmHg 66%
    10:00 +10°C° 0 mm 2 mps 614 mmHg 62%
    11:00 +12°C° 0 mm 2 mps 614 mmHg 57%
    12:00 +13°C° 0 mm 2 mps 614 mmHg 53%
    13:00 +13°C° 0 mm 2 mps 614 mmHg 53%
    14:00 +13°C° 0 mm 2 mps 614 mmHg 54%
    15:00 +12°C° 0 mm 2 mps 613 mmHg 54%
    16:00 +10°C° 0 mm 1 mps 612 mmHg 62%
    17:00 +8°C° 0 mm 1 mps 612 mmHg 70%
    18:00 +6°C° 0 mm 1 mps 611 mmHg 78%
    19:00 +6°C° 0 mm 1 mps 610 mmHg 76%
    20:00 +6°C° 0 mm 1 mps 610 mmHg 73%
    21:00 +5°C° 0 mm 1 mps 610 mmHg 70%
    22:00 +5°C° 0 mm 1 mps 610 mmHg 69%
    23:00 +5°C° 0 mm 1 mps 610 mmHg 67%

    29 October, Tuesday

    Time Temperature Precipitation Wind Pressure Humidity
    00:00 +5°C° 0 mm 1 mps 609 mmHg 66%
    01:00 +5°C° 0 mm 1 mps 609 mmHg 66%
    02:00 +5°C° 0 mm 1 mps 609 mmHg 65%
    03:00 +5°C° 0 mm 1 mps 609 mmHg 65%
    04:00 +5°C° 0 mm 1 mps 609 mmHg 63%
    05:00 +5°C° 0 mm 1 mps 609 mmHg 62%
    06:00 +5°C° 0 mm 1 mps 609 mmHg 60%
    07:00 +7°C° 0 mm 1 mps 609 mmHg 53%
    08:00 +8°C° 0 mm 0 mps 610 mmHg 46%
    09:00 +10°C° 0 mm 0 mps 611 mmHg 39%
    10:00 +12°C° 0 mm 1 mps 611 mmHg 39%
    11:00 +13°C° 0 mm 1 mps 611 mmHg 38%
    12:00 +14°C° 0 mm 1 mps 612 mmHg 37%
    13:00 +14°C° 0 mm 1 mps 611 mmHg 40%
    14:00 +14°C° 0 mm 1 mps 611 mmHg 43%
    15:00 +13°C° 0 mm 1 mps 610 mmHg 46%
    16:00 +11°C° 0 mm 1 mps 610 mmHg 54%
    17:00 +9°C° 0 mm 1 mps 609 mmHg 62%
    18:00 +7°C° 0 mm 1 mps 608 mmHg 70%
    19:00 +7°C° 0 mm 1 mps 608 mmHg 69%
    20:00 +7°C° 0 mm 1 mps 608 mmHg 68%
    21:00 +7°C° 0 mm 1 mps 609 mmHg 68%
    22:00 +6°C° 0 mm 1 mps 608 mmHg 69%
    23:00 +6°C° 0 mm 1 mps 608 mmHg 71%
    Show more